Weather History for KPSX - April, 2013

Change the Weather History Date:

Thursday, April 4, 2013

  Actual Average Record
Temperature  
Mean Temperature 57 °F -  
Max Temperature 64 °F 74 °F 86 °F (1943)
Min Temperature 50 °F 57 °F 38 °F (1987)
Degree Days  
Heating Degree Days 8    
Growing Degree Days 7 (Base 50)    
Moisture  
Dew Point 47 °F    
Average Humidity 73    
Maximum Humidity 88    
Minimum Humidity 46    
Precipitation  
Precipitation 0.00 in - - ()
Sea Level Pressure  
Sea Level Pressure 30.12 in    
Wind  
Wind Speed 14 mph (NNW)    
Max Wind Speed 21 mph    
Max Gust Speed 26 mph    
Visibility 10 miles    
Events      
Averages and records for this station are not official NWS values.
T = Trace of Precipitation, MM = Missing Value Source: NWS Daily Summary

Daily Weather History Graph

Daily Weather History Graph

Search for Another Location

Airport or City:

Trip Planner

Search our weather history database for the weather conditions in past years. The results will help you decide how hot, cold, wet, or windy it might be!

Date:

Astronomy

Apr. 04, 2013 Rise Set
Actual Time 7:11 AM CDT 7:44 PM CDT
Civil Twilight 6:47 AM CDT 8:08 PM CDT
Nautical Twilight 6:19 AM CDT 8:36 PM CDT
Astronomical Twilight 5:51 AM CDT 9:05 PM CDT
Moon 3:11 AM CDT (4/4) 2:29 PM CDT (4/4)
Length of Visible Light 13h 21m
Length of Day
12h 33m
Waning Crescent, 33% of the Moon is Illuminated
Apr 4
Waning Crescent
Apr 10
New
Apr 18
First Quarter
Apr 25
Full
May 2
Last Quarter

Hourly Weather History & Observations

Time (CDT) Temp. Dew Point Humidity Pressure Visibility Wind Dir Wind Speed Gust Speed Precip Events Conditions
12:02 AM 55.4 °F 51.8 °F 88% 30.10 in 10.0 mi North 13.8 mph - N/A   Overcast
12:53 AM 55.9 °F 51.1 °F 84% 30.10 in 10.0 mi North 16.1 mph - N/A   Overcast
1:16 AM 55.4 °F 51.8 °F 88% 30.09 in 9.0 mi North 13.8 mph - N/A   Overcast
1:53 AM 55.9 °F 51.1 °F 84% 30.09 in 8.0 mi North 10.4 mph - N/A   Overcast
2:53 AM 55.0 °F 50.0 °F 83% 30.06 in 7.0 mi North 12.7 mph - N/A   Overcast
3:53 AM 54.0 °F 50.0 °F 86% 30.06 in 5.0 mi NNW 10.4 mph - N/A   Overcast
4:38 AM 53.6 °F 50.0 °F 88% 30.07 in 10.0 mi NW 12.7 mph - N/A   Overcast
4:53 AM 54.0 °F 48.9 °F 83% 30.07 in 10.0 mi NNW 13.8 mph - N/A   Overcast
5:53 AM 54.0 °F 48.0 °F 80% 30.09 in 10.0 mi NW 13.8 mph - N/A   Overcast
6:23 AM 53.6 °F 46.4 °F 77% 30.10 in 10.0 mi NW 10.4 mph - N/A   Mostly Cloudy
6:31 AM 53.6 °F 48.2 °F 82% 30.11 in 9.0 mi NW 11.5 mph - N/A   Mostly Cloudy
6:53 AM 54.0 °F 48.0 °F 80% 30.12 in 10.0 mi NNW 12.7 mph 20.7 mph N/A   Overcast
7:53 AM 54.0 °F 48.9 °F 83% 30.14 in 8.0 mi NW 10.4 mph - N/A   Overcast
8:53 AM 55.0 °F 48.0 °F 77% 30.14 in 10.0 mi NNW 15.0 mph - N/A   Overcast
9:53 AM 55.9 °F 48.0 °F 75% 30.17 in 10.0 mi NW 15.0 mph - N/A   Overcast
10:53 AM 55.9 °F 48.9 °F 77% 30.17 in 10.0 mi NNW 17.3 mph - N/A   Overcast
11:03 AM 57.2 °F 50.0 °F 77% 30.16 in 10.0 mi North 18.4 mph - N/A   Overcast
11:28 AM 57.2 °F 48.2 °F 72% 30.17 in 10.0 mi NNW 19.6 mph - N/A   Overcast
11:53 AM 59.0 °F 46.0 °F 62% 30.17 in 10.0 mi NNW 18.4 mph - N/A   Overcast
12:53 PM 59.0 °F 46.0 °F 62% 30.16 in 10.0 mi NNW 20.7 mph - N/A   Overcast
1:53 PM 60.1 °F 45.0 °F 57% 30.14 in 10.0 mi NNW 20.7 mph - N/A   Overcast
2:53 PM 61.0 °F 45.0 °F 56% 30.12 in 10.0 mi NNW 20.7 mph - N/A   Overcast
3:13 PM 62.6 °F 44.6 °F 52% 30.11 in 10.0 mi NNW 16.1 mph 26.5 mph N/A   Overcast
3:53 PM 60.1 °F 44.1 °F 55% 30.11 in 10.0 mi NW 19.6 mph 26.5 mph N/A   Mostly Cloudy
4:53 PM 64.0 °F 43.0 °F 46% 30.09 in 10.0 mi North 18.4 mph 26.5 mph N/A   Mostly Cloudy
5:53 PM 63.0 °F 43.0 °F 48% 30.10 in 10.0 mi NNW 20.7 mph 25.3 mph N/A   Mostly Cloudy
6:53 PM 60.1 °F 44.1 °F 55% 30.12 in 10.0 mi NNW 16.1 mph - N/A   Mostly Cloudy
7:53 PM 55.9 °F 44.1 °F 64% 30.13 in 10.0 mi North 15.0 mph - N/A   Clear
8:53 PM 52.0 °F 43.0 °F 71% 30.14 in 10.0 mi North 6.9 mph - N/A   Clear
9:53 PM 50.0 °F 43.0 °F 77% 30.18 in 10.0 mi North 5.8 mph - N/A   Clear
10:53 PM 50.0 °F 44.1 °F 80% 30.19 in 10.0 mi North 8.1 mph - N/A   Clear
11:53 PM 50.0 °F 44.1 °F 80% 30.20 in 10.0 mi NNE 8.1 mph - N/A   Clear